Location: *
(37.5724°S, 58.0067°E)
Time: 10:28:28
(UTC+00:00)

Cosmos 2237 Rocket - Pass Details

Date: 26 September 2020
Orbit: 836 x 848 km, 71.0° (Epoch: 29 October)

Event Time Altitude Azimuth Distance (km) Brightness Sun altitude
Rises 23:19:09 0° 202° (SSW) 3,446 5.5 -29.4°
Reaches altitude 10° 23:21:37 10° 200° (SSW) 2,503 4.7 -28.9°
Maximum altitude 23:27:24 82° 112° (ESE) 868 2.2 -27.9°
Drops below altitude 10° 23:33:05 10° 24° (NNE) 2,468 4.6 -26.9°
Sets 23:35:31 0° 23° (NNE) 3,394 5.3 -26.5°
